TimeEST,TemperatureF,Dew PointF,Humidity,Sea Level PressureIn,VisibilityMPH,Wind Direction,Wind SpeedMPH,Gust SpeedMPH,PrecipitationIn,Events,Conditions,WindDirDegrees,DateUTC
12:10 AM,59.0,57.2,94,30.07,0.5,ESE,3.5,-,N/A,Fog,Fog,120,2013-01-16 05:10:00
12:26 AM,59.0,57.2,94,30.07,0.2,ESE,3.5,-,N/A,Fog,Fog,120,2013-01-16 05:26:00
12:53 AM,59.0,57.2,94,30.06,0.2,SE,4.6,-,N/A,Fog,Fog,130,2013-01-16 05:53:00
1:00 AM,59.0,57.2,94,30.06,0.2,SE,4.6,-,N/A,Fog,Fog,140,2013-01-16 06:00:00
1:53 AM,61.0,60.1,97,30.06,0.2,SSE,5.8,-,N/A,Fog,Fog,150,2013-01-16 06:53:00
2:34 AM,60.8,60.8,100,30.06,0.5,Calm,Calm,-,N/A,Fog,Fog,0,2013-01-16 07:34:00
2:53 AM,60.8,60.8,100,30.05,0.5,Calm,Calm,-,N/A,Fog,Fog,0,2013-01-16 07:53:00
3:22 AM,60.8,60.8,100,30.04,1.5,South,5.8,-,N/A,,Mostly Cloudy,170,2013-01-16 08:22:00
3:24 AM,60.8,59.0,94,30.04,4.0,South,5.8,-,N/A,,Mostly Cloudy,180,2013-01-16 08:24:00
3:31 AM,62.6,60.8,94,30.03,10.0,South,6.9,-,N/A,,Scattered Clouds,180,2013-01-16 08:31:00
3:53 AM,63.0,62.1,97,30.03,10.0,South,8.1,-,N/A,,Clear,190,2013-01-16 08:53:00
4:53 AM,64.0,62.1,93,30.01,10.0,South,5.8,-,N/A,,Clear,180,2013-01-16 09:53:00
5:53 AM,63.0,61.0,93,30.02,10.0,South,3.5,-,N/A,,Scattered Clouds,190,2013-01-16 10:53:00
6:53 AM,62.1,60.1,93,30.02,10.0,South,5.8,-,N/A,,Clear,180,2013-01-16 11:53:00
7:53 AM,64.9,63.0,93,30.04,10.0,SSW,5.8,-,N/A,,Clear,210,2013-01-16 12:53:00
8:48 AM,66.2,64.4,94,30.05,10.0,SW,10.4,-,N/A,,Mostly Cloudy,230,2013-01-16 13:48:00
8:53 AM,68.0,64.0,87,30.05,10.0,SW,10.4,-,N/A,,Mostly Cloudy,230,2013-01-16 13:53:00
9:42 AM,69.8,64.4,83,30.05,10.0,SSW,9.2,-,N/A,,Scattered Clouds,210,2013-01-16 14:42:00
9:53 AM,71.1,64.9,81,30.05,10.0,SW,13.8,19.6,N/A,,Partly Cloudy,220,2013-01-16 14:53:00
10:53 AM,75.0,64.0,69,30.04,10.0,WSW,16.1,-,N/A,,Clear,240,2013-01-16 15:53:00
11:53 AM,75.0,62.1,64,30.00,10.0,SW,17.3,28.8,N/A,,Clear,220,2013-01-16 16:53:00
12:53 PM,75.9,61.0,60,29.99,10.0,SSW,13.8,24.2,N/A,,Clear,210,2013-01-16 17:53:00
1:53 PM,78.1,61.0,56,29.97,10.0,SSW,10.4,20.7,N/A,,Partly Cloudy,210,2013-01-16 18:53:00
2:53 PM,75.9,61.0,60,29.96,10.0,SSW,13.8,19.6,N/A,,Clear,210,2013-01-16 19:53:00
3:53 PM,75.0,61.0,62,29.97,10.0,SSW,11.5,-,N/A,,Clear,200,2013-01-16 20:53:00
4:53 PM,72.0,60.1,66,29.99,10.0,SSW,10.4,-,N/A,,Clear,210,2013-01-16 21:53:00
5:53 PM,68.0,59.0,73,29.99,10.0,SSW,8.1,-,N/A,,Clear,200,2013-01-16 22:53:00
6:53 PM,66.9,59.0,76,30.01,10.0,WSW,3.5,-,N/A,,Clear,250,2013-01-16 23:53:00
7:53 PM,64.9,57.9,78,30.01,10.0,WSW,4.6,-,N/A,,Clear,250,2013-01-17 00:53:00
8:53 PM,63.0,57.9,84,30.01,10.0,South,4.6,-,N/A,,Clear,190,2013-01-17 01:53:00
9:53 PM,60.1,57.0,90,30.01,10.0,Calm,Calm,-,N/A,,Clear,0,2013-01-17 02:53:00
10:53 PM,61.0,57.9,90,30.00,10.0,SW,3.5,-,N/A,,Clear,230,2013-01-17 03:53:00
11:53 PM,62.1,60.1,93,29.99,6.0,SSW,4.6,-,N/A,,Clear,210,2013-01-17 04:53:00